Year,Month,Day,Hour,Minute,Value (Times are PST for insolation in W/m^2)
2005,07,14,00,00,0.00
2005,07,14,00,01,0.00
2005,07,14,00,02,0.00
2005,07,14,00,03,0.00
2005,07,14,00,04,0.00
2005,07,14,00,05,0.00
2005,07,14,00,06,0.00
2005,07,14,00,07,0.00
2005,07,14,00,08,0.00
2005,07,14,00,09,0.00
2005,07,14,00,10,0.00
2005,07,14,00,11,0.00
2005,07,14,00,12,0.00
2005,07,14,00,13,0.00
2005,07,14,00,14,0.00
2005,07,14,00,15,0.00
2005,07,14,00,16,0.00
2005,07,14,00,17,0.00
2005,07,14,00,18,0.00
2005,07,14,00,19,0.00
2005,07,14,00,20,0.00
2005,07,14,00,21,0.00
2005,07,14,00,22,0.00
2005,07,14,00,23,0.00
2005,07,14,00,24,0.00
2005,07,14,00,25,0.00
2005,07,14,00,26,0.00
2005,07,14,00,27,0.00
2005,07,14,00,28,0.00
2005,07,14,00,29,0.00
2005,07,14,00,30,0.00
2005,07,14,00,31,0.00
2005,07,14,00,32,0.00
2005,07,14,00,33,0.00
2005,07,14,00,34,0.00
2005,07,14,00,35,0.00
2005,07,14,00,36,0.00
2005,07,14,00,37,0.00
2005,07,14,00,38,0.00
2005,07,14,00,39,0.00
2005,07,14,00,40,0.00
2005,07,14,00,41,0.00
2005,07,14,00,42,0.00
2005,07,14,00,43,0.00
2005,07,14,00,44,0.00
2005,07,14,00,45,0.00
2005,07,14,00,46,0.00
2005,07,14,00,47,0.00
2005,07,14,00,48,0.00
2005,07,14,00,49,0.00
2005,07,14,00,50,0.00
2005,07,14,00,51,0.00
2005,07,14,00,52,0.00
2005,07,14,00,53,0.00
2005,07,14,00,54,0.00
2005,07,14,00,55,0.00
2005,07,14,00,56,0.00
2005,07,14,00,57,0.00
2005,07,14,00,58,0.00
2005,07,14,00,59,0.00
2005,07,14,01,00,0.00
2005,07,14,01,01,0.00
2005,07,14,01,02,0.00
2005,07,14,01,03,0.00
2005,07,14,01,04,0.00
2005,07,14,01,05,0.00
2005,07,14,01,06,0.00
2005,07,14,01,07,0.00
2005,07,14,01,08,0.00
2005,07,14,01,09,0.00
2005,07,14,01,10,0.00
2005,07,14,01,11,0.00
2005,07,14,01,12,0.00
2005,07,14,01,13,0.00
2005,07,14,01,14,0.00
2005,07,14,01,15,0.00
2005,07,14,01,16,0.00
2005,07,14,01,17,0.00
2005,07,14,01,18,0.00
2005,07,14,01,19,0.00
2005,07,14,01,20,0.00
2005,07,14,01,21,0.00
2005,07,14,01,22,0.00
2005,07,14,01,23,0.00
2005,07,14,01,24,0.00
2005,07,14,01,25,0.00
2005,07,14,01,26,0.00
2005,07,14,01,27,0.00
2005,07,14,01,28,0.00
2005,07,14,01,29,0.00
2005,07,14,01,30,0.00
2005,07,14,01,31,0.00
2005,07,14,01,32,0.00
2005,07,14,01,33,0.00
2005,07,14,01,34,0.00
2005,07,14,01,35,0.00
2005,07,14,01,36,0.00
2005,07,14,01,37,0.00
2005,07,14,01,38,0.00
2005,07,14,01,39,0.00
2005,07,14,01,40,0.00
2005,07,14,01,41,0.00
2005,07,14,01,42,0.00
2005,07,14,01,43,0.00
2005,07,14,01,44,0.00
2005,07,14,01,45,0.00
2005,07,14,01,46,0.00
2005,07,14,01,47,0.00
2005,07,14,01,48,0.00
2005,07,14,01,49,0.00
2005,07,14,01,50,0.00
2005,07,14,01,51,0.00
2005,07,14,01,52,0.00
2005,07,14,01,53,0.00
2005,07,14,01,54,0.00
2005,07,14,01,55,0.00
2005,07,14,01,56,0.00
2005,07,14,01,57,0.00
2005,07,14,01,58,0.00
2005,07,14,01,59,0.00
2005,07,14,02,00,0.00
2005,07,14,02,01,0.00
2005,07,14,02,02,0.00
2005,07,14,02,03,0.00
2005,07,14,02,04,0.00
2005,07,14,02,05,0.00
2005,07,14,02,06,0.00
2005,07,14,02,07,0.00
2005,07,14,02,08,0.00
2005,07,14,02,09,0.00
2005,07,14,02,10,0.00
2005,07,14,02,11,0.00
2005,07,14,02,12,0.00
2005,07,14,02,13,0.00
2005,07,14,02,14,0.00
2005,07,14,02,15,0.00
2005,07,14,02,16,0.00
2005,07,14,02,17,0.00
2005,07,14,02,18,0.00
2005,07,14,02,19,0.00
2005,07,14,02,20,0.00
2005,07,14,02,21,0.00
2005,07,14,02,22,0.00
2005,07,14,02,23,0.00
2005,07,14,02,24,0.00
2005,07,14,02,25,0.00
2005,07,14,02,26,0.00
2005,07,14,02,27,0.00
2005,07,14,02,28,0.00
2005,07,14,02,29,0.00
2005,07,14,02,30,0.00
2005,07,14,02,31,0.00
2005,07,14,02,32,0.00
2005,07,14,02,33,0.00
2005,07,14,02,34,0.00
2005,07,14,02,35,0.00
2005,07,14,02,36,0.00
2005,07,14,02,37,0.00
2005,07,14,02,38,0.00
2005,07,14,02,39,0.00
2005,07,14,02,40,0.00
2005,07,14,02,41,0.00
2005,07,14,02,42,0.00
2005,07,14,02,43,0.00
2005,07,14,02,44,0.00
2005,07,14,02,45,0.00
2005,07,14,02,46,0.00
2005,07,14,02,47,0.00
2005,07,14,02,48,0.00
2005,07,14,02,49,0.00
2005,07,14,02,50,0.00
2005,07,14,02,51,0.00
2005,07,14,02,52,0.00
2005,07,14,02,53,0.00
2005,07,14,02,54,0.00
2005,07,14,02,55,0.00
2005,07,14,02,56,0.00
2005,07,14,02,57,0.00
2005,07,14,02,58,0.00
2005,07,14,02,59,0.00
2005,07,14,03,00,0.00
2005,07,14,03,01,0.00
2005,07,14,03,02,0.00
2005,07,14,03,03,0.00
2005,07,14,03,04,0.00
2005,07,14,03,05,0.00
2005,07,14,03,06,0.00
2005,07,14,03,07,0.00
2005,07,14,03,08,0.00
2005,07,14,03,09,0.00
2005,07,14,03,10,0.00
2005,07,14,03,11,0.00
2005,07,14,03,12,0.00
2005,07,14,03,13,0.00
2005,07,14,03,14,0.00
2005,07,14,03,15,0.00
2005,07,14,03,16,0.00
2005,07,14,03,17,0.00
2005,07,14,03,18,0.00
2005,07,14,03,19,0.00
2005,07,14,03,20,0.00
2005,07,14,03,21,0.00
2005,07,14,03,22,0.00
2005,07,14,03,23,0.00
2005,07,14,03,24,0.00
2005,07,14,03,25,0.00
2005,07,14,03,26,0.00
2005,07,14,03,27,0.00
2005,07,14,03,28,0.00
2005,07,14,03,29,0.00
2005,07,14,03,30,0.00
2005,07,14,03,31,0.00
2005,07,14,03,32,0.00
2005,07,14,03,33,0.00
2005,07,14,03,34,0.00
2005,07,14,03,35,0.00
2005,07,14,03,36,0.00
2005,07,14,03,37,0.00
2005,07,14,03,38,0.00
2005,07,14,03,39,0.00
2005,07,14,03,40,0.00
2005,07,14,03,41,0.00
2005,07,14,03,42,0.00
2005,07,14,03,43,0.00
2005,07,14,03,44,0.00
2005,07,14,03,45,0.00
2005,07,14,03,46,0.00
2005,07,14,03,47,0.00
2005,07,14,03,48,0.00
2005,07,14,03,49,0.00
2005,07,14,03,50,0.00
2005,07,14,03,51,0.00
2005,07,14,03,52,0.00
2005,07,14,03,53,0.00
2005,07,14,03,54,0.00
2005,07,14,03,55,0.00
2005,07,14,03,56,0.00
2005,07,14,03,57,0.00
2005,07,14,03,58,0.00
2005,07,14,03,59,0.00
2005,07,14,04,00,0.00
2005,07,14,04,01,0.00
2005,07,14,04,02,0.00
2005,07,14,04,03,0.00
2005,07,14,04,04,0.00
2005,07,14,04,05,0.00
2005,07,14,04,06,0.00
2005,07,14,04,07,0.00
2005,07,14,04,08,0.00
2005,07,14,04,09,0.00
2005,07,14,04,10,0.00
2005,07,14,04,11,0.00
2005,07,14,04,12,0.00
2005,07,14,04,13,0.00
2005,07,14,04,14,0.00
2005,07,14,04,15,0.00
2005,07,14,04,16,0.00
2005,07,14,04,17,0.00
2005,07,14,04,18,0.00
2005,07,14,04,19,0.00
2005,07,14,04,20,0.00
2005,07,14,04,21,0.00
2005,07,14,04,22,0.00
2005,07,14,04,23,0.00
2005,07,14,04,24,0.00
2005,07,14,04,25,0.00
2005,07,14,04,26,0.00
2005,07,14,04,27,0.00
2005,07,14,04,28,0.00
2005,07,14,04,29,0.00
2005,07,14,04,30,0.00
2005,07,14,04,31,0.00
2005,07,14,04,32,0.00
2005,07,14,04,33,0.00
2005,07,14,04,34,0.00
2005,07,14,04,35,0.00
2005,07,14,04,36,0.00
2005,07,14,04,37,0.00
2005,07,14,04,38,0.00
2005,07,14,04,39,0.00
2005,07,14,04,40,0.00
2005,07,14,04,41,0.00
2005,07,14,04,42,0.00
2005,07,14,04,43,0.00
2005,07,14,04,44,0.00
2005,07,14,04,45,0.00
2005,07,14,04,46,0.00
2005,07,14,04,47,0.00
2005,07,14,04,48,0.00
2005,07,14,04,49,0.00
2005,07,14,04,50,0.00
2005,07,14,04,51,0.00
2005,07,14,04,52,0.00
2005,07,14,04,53,0.00
2005,07,14,04,54,0.00
2005,07,14,04,55,0.00
2005,07,14,04,56,0.00
2005,07,14,04,57,0.00
2005,07,14,04,58,0.00
2005,07,14,04,59,0.00
2005,07,14,05,00,0.00
2005,07,14,05,01,0.00
2005,07,14,05,02,0.00
2005,07,14,05,03,0.00
2005,07,14,05,04,0.00
2005,07,14,05,05,0.00
2005,07,14,05,06,0.00
2005,07,14,05,07,0.00
2005,07,14,05,08,0.00
2005,07,14,05,09,0.00
2005,07,14,05,10,0.00
2005,07,14,05,11,0.00
2005,07,14,05,12,0.00
2005,07,14,05,13,0.00
2005,07,14,05,14,0.00
2005,07,14,05,15,0.00
2005,07,14,05,16,0.00
2005,07,14,05,17,0.00
2005,07,14,05,18,0.00
2005,07,14,05,19,0.00
2005,07,14,05,20,0.00
2005,07,14,05,21,0.00
2005,07,14,05,22,0.00
2005,07,14,05,23,0.00
2005,07,14,05,24,0.00
2005,07,14,05,25,0.00
2005,07,14,05,26,0.00
2005,07,14,05,27,0.00
2005,07,14,05,28,0.00
2005,07,14,05,29,0.00
2005,07,14,05,30,0.00
2005,07,14,05,31,3.40
2005,07,14,05,32,5.00
2005,07,14,05,33,5.00
2005,07,14,05,34,5.00
2005,07,14,05,35,5.00
2005,07,14,05,36,5.00
2005,07,14,05,37,5.00
2005,07,14,05,38,5.00
2005,07,14,05,39,5.00
2005,07,14,05,40,5.00
2005,07,14,05,41,5.00
2005,07,14,05,42,6.20
2005,07,14,05,43,7.00
2005,07,14,05,44,7.00
2005,07,14,05,45,7.00
2005,07,14,05,46,7.00
2005,07,14,05,47,8.00
2005,07,14,05,48,9.00
2005,07,14,05,49,9.00
2005,07,14,05,50,9.10
2005,07,14,05,51,11.00
2005,07,14,05,52,11.00
2005,07,14,05,53,11.00
2005,07,14,05,54,11.60
2005,07,14,05,55,13.60
2005,07,14,05,56,16.00
2005,07,14,05,57,22.10
2005,07,14,05,58,25.70
2005,07,14,05,59,24.00
2005,07,14,06,00,21.70
2005,07,14,06,01,22.60
2005,07,14,06,02,23.30
2005,07,14,06,03,29.20
2005,07,14,06,04,44.90
2005,07,14,06,05,57.10
2005,07,14,06,06,58.60
2005,07,14,06,07,53.90
2005,07,14,06,08,48.90
2005,07,14,06,09,45.20
2005,07,14,06,10,40.00
2005,07,14,06,11,39.40
2005,07,14,06,12,39.70
2005,07,14,06,13,45.80
2005,07,14,06,14,58.30
2005,07,14,06,15,69.60
2005,07,14,06,16,82.50
2005,07,14,06,17,97.60
2005,07,14,06,18,102.00
2005,07,14,06,19,104.60
2005,07,14,06,20,103.30
2005,07,14,06,21,100.00
2005,07,14,06,22,101.90
2005,07,14,06,23,109.50
2005,07,14,06,24,116.70
2005,07,14,06,25,119.90
2005,07,14,06,26,121.80
2005,07,14,06,27,125.60
2005,07,14,06,28,127.50
2005,07,14,06,29,129.20
2005,07,14,06,30,130.00
2005,07,14,06,31,130.00
2005,07,14,06,32,127.80
2005,07,14,06,33,115.70
2005,07,14,06,34,108.30
2005,07,14,06,35,104.40
2005,07,14,06,36,104.00
2005,07,14,06,37,105.00
2005,07,14,06,38,106.60
2005,07,14,06,39,104.00
2005,07,14,06,40,100.00
2005,07,14,06,41,97.40
2005,07,14,06,42,97.00
2005,07,14,06,43,104.70
2005,07,14,06,44,116.00
2005,07,14,06,45,116.00
2005,07,14,06,46,113.50
2005,07,14,06,47,108.10
2005,07,14,06,48,114.40
2005,07,14,06,49,135.30
2005,07,14,06,50,146.40
2005,07,14,06,51,138.90
2005,07,14,06,52,135.70
2005,07,14,06,53,143.30
2005,07,14,06,54,160.20
2005,07,14,06,55,178.30
2005,07,14,06,56,172.70
2005,07,14,06,57,167.20
2005,07,14,06,58,163.90
2005,07,14,06,59,170.70
2005,07,14,07,00,184.30
2005,07,14,07,01,173.10
2005,07,14,07,02,176.90
2005,07,14,07,03,175.10
2005,07,14,07,04,177.10
2005,07,14,07,05,172.10
2005,07,14,07,06,177.30
2005,07,14,07,07,195.10
2005,07,14,07,08,215.00
2005,07,14,07,09,205.60
2005,07,14,07,10,223.10
2005,07,14,07,11,247.10
2005,07,14,07,12,244.50
2005,07,14,07,13,198.00
2005,07,14,07,14,161.80
2005,07,14,07,15,170.20
2005,07,14,07,16,189.70
2005,07,14,07,17,183.90
2005,07,14,07,18,189.60
2005,07,14,07,19,215.40
2005,07,14,07,20,230.40
2005,07,14,07,21,218.00
2005,07,14,07,22,213.30
2005,07,14,07,23,248.60
2005,07,14,07,24,237.00
2005,07,14,07,25,231.00
2005,07,14,07,26,212.20
2005,07,14,07,27,208.80
2005,07,14,07,28,207.00
2005,07,14,07,29,207.00
2005,07,14,07,30,167.10
2005,07,14,07,31,168.20
2005,07,14,07,32,174.50
2005,07,14,07,33,178.00
2005,07,14,07,34,173.80
2005,07,14,07,35,169.50
2005,07,14,07,36,164.90
2005,07,14,07,37,162.70
2005,07,14,07,38,162.00
2005,07,14,07,39,159.50
2005,07,14,07,40,156.50
2005,07,14,07,41,156.00
2005,07,14,07,42,158.70
2005,07,14,07,43,164.10
2005,07,14,07,44,172.30
2005,07,14,07,45,180.10
2005,07,14,07,46,185.30
2005,07,14,07,47,189.70
2005,07,14,07,48,195.30
2005,07,14,07,49,196.30
2005,07,14,07,50,194.00
2005,07,14,07,51,189.80
2005,07,14,07,52,184.30
2005,07,14,07,53,185.90
2005,07,14,07,54,189.60
2005,07,14,07,55,186.90
2005,07,14,07,56,182.90
2005,07,14,07,57,177.70
2005,07,14,07,58,177.60
2005,07,14,07,59,178.10
2005,07,14,08,00,177.90
2005,07,14,08,01,181.30
2005,07,14,08,02,228.90
2005,07,14,08,03,250.50
2005,07,14,08,04,222.00
2005,07,14,08,05,209.00
2005,07,14,08,06,206.80
2005,07,14,08,07,222.20
2005,07,14,08,08,234.00
2005,07,14,08,09,259.40
2005,07,14,08,10,332.30
2005,07,14,08,11,372.60
2005,07,14,08,12,374.00
2005,07,14,08,13,336.80
2005,07,14,08,14,291.00
2005,07,14,08,15,301.00
2005,07,14,08,16,301.00
2005,07,14,08,17,277.00
2005,07,14,08,18,349.60
2005,07,14,08,19,355.20
2005,07,14,08,20,379.50
2005,07,14,08,21,348.20
2005,07,14,08,22,330.20
2005,07,14,08,23,309.40
2005,07,14,08,24,327.40
2005,07,14,08,25,304.10
2005,07,14,08,26,305.80
2005,07,14,08,27,319.00
2005,07,14,08,28,320.00
2005,07,14,08,29,321.90
2005,07,14,08,30,338.50
2005,07,14,08,31,345.60
2005,07,14,08,32,317.00
2005,07,14,08,33,261.20
2005,07,14,08,34,268.70
2005,07,14,08,35,281.70
2005,07,14,08,36,267.70
2005,07,14,08,37,248.50
2005,07,14,08,38,240.40
2005,07,14,08,39,227.30
2005,07,14,08,40,214.50
2005,07,14,08,41,193.20
2005,07,14,08,42,204.00
2005,07,14,08,43,217.40
2005,07,14,08,44,253.30
2005,07,14,08,45,262.40
2005,07,14,08,46,276.40
2005,07,14,08,47,314.00
2005,07,14,08,48,308.30
2005,07,14,08,49,295.30
2005,07,14,08,50,288.00
2005,07,14,08,51,403.40
2005,07,14,08,52,459.90
2005,07,14,08,53,476.00
2005,07,14,08,54,455.90
2005,07,14,08,55,418.10
2005,07,14,08,56,415.10
2005,07,14,08,57,442.60
2005,07,14,08,58,452.30
2005,07,14,08,59,476.00
2005,07,14,09,00,484.70
2005,07,14,09,01,476.00
2005,07,14,09,02,475.30
2005,07,14,09,03,522.30
2005,07,14,09,04,534.20
2005,07,14,09,05,540.00
2005,07,14,09,06,535.90
2005,07,14,09,07,536.70
2005,07,14,09,08,535.20
2005,07,14,09,09,534.00
2005,07,14,09,10,539.80
2005,07,14,09,11,548.60
2005,07,14,09,12,550.90
2005,07,14,09,13,552.00
2005,07,14,09,14,552.00
2005,07,14,09,15,552.00
2005,07,14,09,16,552.00
2005,07,14,09,17,552.00
2005,07,14,09,18,552.00
2005,07,14,09,19,563.70
2005,07,14,09,20,570.00
2005,07,14,09,21,572.80
2005,07,14,09,22,575.40
2005,07,14,09,23,576.30
2005,07,14,09,24,576.50
2005,07,14,09,25,578.00
2005,07,14,09,26,578.00
2005,07,14,09,27,584.90
2005,07,14,09,28,582.70
2005,07,14,09,29,566.40
2005,07,14,09,30,556.00
2005,07,14,09,31,574.70
2005,07,14,09,32,594.70
2005,07,14,09,33,601.30
2005,07,14,09,34,605.00
2005,07,14,09,35,605.00
2005,07,14,09,36,609.20
2005,07,14,09,37,617.40
2005,07,14,09,38,620.60
2005,07,14,09,39,621.00
2005,07,14,09,40,614.00
2005,07,14,09,41,584.60
2005,07,14,09,42,571.00
2005,07,14,09,43,598.30
2005,07,14,09,44,595.30
2005,07,14,09,45,616.80
2005,07,14,09,46,629.60
2005,07,14,09,47,632.70
2005,07,14,09,48,636.80
2005,07,14,09,49,638.00
2005,07,14,09,50,639.70
2005,07,14,09,51,640.00
2005,07,14,09,52,640.00
2005,07,14,09,53,640.00
2005,07,14,09,54,640.00
2005,07,14,09,55,640.00
2005,07,14,09,56,640.70
2005,07,14,09,57,656.00
2005,07,14,09,58,656.00
2005,07,14,09,59,659.50
2005,07,14,10,00,657.40
2005,07,14,10,01,659.50
2005,07,14,10,02,665.80
2005,07,14,10,03,666.40
2005,07,14,10,04,669.10
2005,07,14,10,05,671.00
2005,07,14,10,06,672.30
2005,07,14,10,07,674.70
2005,07,14,10,08,675.30
2005,07,14,10,09,679.20
2005,07,14,10,10,681.40
2005,07,14,10,11,684.00
2005,07,14,10,12,686.10
2005,07,14,10,13,688.70
2005,07,14,10,14,691.10
2005,07,14,10,15,693.30
2005,07,14,10,16,695.60
2005,07,14,10,17,699.00
2005,07,14,10,18,700.00
2005,07,14,10,19,700.90
2005,07,14,10,20,703.20
2005,07,14,10,21,705.50
2005,07,14,10,22,708.20
2005,07,14,10,23,710.00
2005,07,14,10,24,711.40
2005,07,14,10,25,714.60
2005,07,14,10,26,717.30
2005,07,14,10,27,719.00
2005,07,14,10,28,720.30
2005,07,14,10,29,724.40
2005,07,14,10,30,727.50
2005,07,14,10,31,728.90
2005,07,14,10,32,735.30
2005,07,14,10,33,737.00
2005,07,14,10,34,739.50
2005,07,14,10,35,740.80
2005,07,14,10,36,740.00
2005,07,14,10,37,749.60
2005,07,14,10,38,742.70
2005,07,14,10,39,752.00
2005,07,14,10,40,748.50
2005,07,14,10,41,720.90
2005,07,14,10,42,747.90
2005,07,14,10,43,758.30
2005,07,14,10,44,758.40
2005,07,14,10,45,751.70
2005,07,14,10,46,768.00
2005,07,14,10,47,766.00
2005,07,14,10,48,773.00
2005,07,14,10,49,777.40
2005,07,14,10,50,782.90
2005,07,14,10,51,787.20
2005,07,14,10,52,791.10
2005,07,14,10,53,793.00
2005,07,14,10,54,794.70
2005,07,14,10,55,768.80
2005,07,14,10,56,762.00
2005,07,14,10,57,747.00
2005,07,14,10,58,737.00
2005,07,14,10,59,737.00
2005,07,14,11,00,737.00
2005,07,14,11,01,634.20
2005,07,14,11,02,673.00
2005,07,14,11,03,703.90
2005,07,14,11,04,711.80
2005,07,14,11,05,706.80
2005,07,14,11,06,715.00
2005,07,14,11,07,728.60
2005,07,14,11,08,811.80
2005,07,14,11,09,816.00
2005,07,14,11,10,816.00
2005,07,14,11,11,816.00
2005,07,14,11,12,818.70
2005,07,14,11,13,829.20
2005,07,14,11,14,786.80
2005,07,14,11,15,816.10
2005,07,14,11,16,819.80
2005,07,14,11,17,820.50
2005,07,14,11,18,821.10
2005,07,14,11,19,823.20
2005,07,14,11,20,824.70
2005,07,14,11,21,826.00
2005,07,14,11,22,828.60
2005,07,14,11,23,832.30
2005,07,14,11,24,833.20
2005,07,14,11,25,835.00
2005,07,14,11,26,837.40
2005,07,14,11,27,843.00
2005,07,14,11,28,847.30
2005,07,14,11,29,853.00
2005,07,14,11,30,849.20
2005,07,14,11,31,849.00
2005,07,14,11,32,853.10
2005,07,14,11,33,833.90
2005,07,14,11,34,775.20
2005,07,14,11,35,805.60
2005,07,14,11,36,780.10
2005,07,14,11,37,737.70
2005,07,14,11,38,666.00
2005,07,14,11,39,675.10
2005,07,14,11,40,721.30
2005,07,14,11,41,783.30
2005,07,14,11,42,813.30
2005,07,14,11,43,809.00
2005,07,14,11,44,809.00
2005,07,14,11,45,809.00
2005,07,14,11,46,809.00
2005,07,14,11,47,861.70
2005,07,14,11,48,870.00
2005,07,14,11,49,870.00
2005,07,14,11,50,870.00
2005,07,14,11,51,888.70
2005,07,14,11,52,902.00
2005,07,14,11,53,902.40
2005,07,14,11,54,901.90
2005,07,14,11,55,881.70
2005,07,14,11,56,905.50
2005,07,14,11,57,909.50
2005,07,14,11,58,877.00
2005,07,14,11,59,911.50
2005,07,14,12,00,834.30
2005,07,14,12,01,788.00
2005,07,14,12,02,788.00
2005,07,14,12,03,788.00
2005,07,14,12,04,788.00
2005,07,14,12,05,636.20
2005,07,14,12,06,664.80
2005,07,14,12,07,826.60
2005,07,14,12,08,886.80
2005,07,14,12,09,887.70
2005,07,14,12,10,894.40
2005,07,14,12,11,930.80
2005,07,14,12,12,865.00
2005,07,14,12,13,865.00
2005,07,14,12,14,902.60
2005,07,14,12,15,933.40
2005,07,14,12,16,934.60
2005,07,14,12,17,922.70
2005,07,14,12,18,912.20
2005,07,14,12,19,901.50
2005,07,14,12,20,908.20
2005,07,14,12,21,921.00
2005,07,14,12,22,921.00
2005,07,14,12,23,860.20
2005,07,14,12,24,869.60
2005,07,14,12,25,823.00
2005,07,14,12,26,809.50
2005,07,14,12,27,795.10
2005,07,14,12,28,832.40
2005,07,14,12,29,849.40
2005,07,14,12,30,923.50
2005,07,14,12,31,872.10
2005,07,14,12,32,849.20
2005,07,14,12,33,801.50
2005,07,14,12,34,777.00
2005,07,14,12,35,812.10
2005,07,14,12,36,983.50
2005,07,14,12,37,993.00
2005,07,14,12,38,993.00
2005,07,14,12,39,993.00
2005,07,14,12,40,975.10
2005,07,14,12,41,584.40
2005,07,14,12,42,515.00
2005,07,14,12,43,515.00
2005,07,14,12,44,742.00
2005,07,14,12,45,863.00
2005,07,14,12,46,863.00
2005,07,14,12,47,863.00
2005,07,14,12,48,761.90
2005,07,14,12,49,592.60
2005,07,14,12,50,599.00
2005,07,14,12,51,599.00
2005,07,14,12,52,849.10
2005,07,14,12,53,857.30
2005,07,14,12,54,850.50
2005,07,14,12,55,897.70
2005,07,14,12,56,926.00
2005,07,14,12,57,746.90
2005,07,14,12,58,692.60
2005,07,14,12,59,437.30
2005,07,14,13,00,439.00
2005,07,14,13,01,490.80
2005,07,14,13,02,544.60
2005,07,14,13,03,601.70
2005,07,14,13,04,633.60
2005,07,14,13,05,673.30
2005,07,14,13,06,680.00
2005,07,14,13,07,827.00
2005,07,14,13,08,908.70
2005,07,14,13,09,895.00
2005,07,14,13,10,741.60
2005,07,14,13,11,836.00
2005,07,14,13,12,899.20
2005,07,14,13,13,871.10
2005,07,14,13,14,884.20
2005,07,14,13,15,811.90
2005,07,14,13,16,816.80
2005,07,14,13,17,786.00
2005,07,14,13,18,808.50
2005,07,14,13,19,833.00
2005,07,14,13,20,881.80
2005,07,14,13,21,961.30
2005,07,14,13,22,954.40
2005,07,14,13,23,941.50
2005,07,14,13,24,907.00
2005,07,14,13,25,896.70
2005,07,14,13,26,906.60
2005,07,14,13,27,898.90
2005,07,14,13,28,909.90
2005,07,14,13,29,948.90
2005,07,14,13,30,952.00
2005,07,14,13,31,970.10
2005,07,14,13,32,989.60
2005,07,14,13,33,977.30
2005,07,14,13,34,929.90
2005,07,14,13,35,927.50
2005,07,14,13,36,937.00
2005,07,14,13,37,895.90
2005,07,14,13,38,874.00
2005,07,14,13,39,874.00
2005,07,14,13,40,874.00
2005,07,14,13,41,791.50
2005,07,14,13,42,647.00
2005,07,14,13,43,647.00
2005,07,14,13,44,953.50
2005,07,14,13,45,991.00
2005,07,14,13,46,978.80
2005,07,14,13,47,1000.80
2005,07,14,13,48,1002.10
2005,07,14,13,49,1005.60
2005,07,14,13,50,1002.40
2005,07,14,13,51,1005.30
2005,07,14,13,52,1009.00
2005,07,14,13,53,995.30
2005,07,14,13,54,941.20
2005,07,14,13,55,927.80
2005,07,14,13,56,952.90
2005,07,14,13,57,925.00
2005,07,14,13,58,871.90
2005,07,14,13,59,783.80
2005,07,14,14,00,785.30
2005,07,14,14,01,770.00
2005,07,14,14,02,851.90
2005,07,14,14,03,856.00
2005,07,14,14,04,856.00
2005,07,14,14,05,856.00
2005,07,14,14,06,913.30
2005,07,14,14,07,936.60
2005,07,14,14,08,925.60
2005,07,14,14,09,917.60
2005,07,14,14,10,914.60
2005,07,14,14,11,911.50
2005,07,14,14,12,909.60
2005,07,14,14,13,905.70
2005,07,14,14,14,899.90
2005,07,14,14,15,896.00
2005,07,14,14,16,895.60
2005,07,14,14,17,892.80
2005,07,14,14,18,893.70
2005,07,14,14,19,893.40
2005,07,14,14,20,892.70
2005,07,14,14,21,888.80
2005,07,14,14,22,888.00
2005,07,14,14,23,885.50
2005,07,14,14,24,884.00
2005,07,14,14,25,885.70
2005,07,14,14,26,883.80
2005,07,14,14,27,882.60
2005,07,14,14,28,884.00
2005,07,14,14,29,882.80
2005,07,14,14,30,878.40
2005,07,14,14,31,877.00
2005,07,14,14,32,874.90
2005,07,14,14,33,874.30
2005,07,14,14,34,875.90
2005,07,14,14,35,875.20
2005,07,14,14,36,874.00
2005,07,14,14,37,874.00
2005,07,14,14,38,872.90
2005,07,14,14,39,867.70
2005,07,14,14,40,867.00
2005,07,14,14,41,865.80
2005,07,14,14,42,866.60
2005,07,14,14,43,867.00
2005,07,14,14,44,868.00
2005,07,14,14,45,866.20
2005,07,14,14,46,863.00
2005,07,14,14,47,863.00
2005,07,14,14,48,861.40
2005,07,14,14,49,860.10
2005,07,14,14,50,859.90
2005,07,14,14,51,856.00
2005,07,14,14,52,856.00
2005,07,14,14,53,854.60
2005,07,14,14,54,853.20
2005,07,14,14,55,853.00
2005,07,14,14,56,852.50
2005,07,14,14,57,851.80
2005,07,14,14,58,850.80
2005,07,14,14,59,849.00
2005,07,14,15,00,850.70
2005,07,14,15,01,851.00
2005,07,14,15,02,850.50
2005,07,14,15,03,848.20
2005,07,14,15,04,847.00
2005,07,14,15,05,847.00
2005,07,14,15,06,847.00
2005,07,14,15,07,846.60
2005,07,14,15,08,843.40
2005,07,14,15,09,836.20
2005,07,14,15,10,795.20
2005,07,14,15,11,798.40
2005,07,14,15,12,802.90
2005,07,14,15,13,782.70
2005,07,14,15,14,789.30
2005,07,14,15,15,803.60
2005,07,14,15,16,814.40
2005,07,14,15,17,809.00
2005,07,14,15,18,802.70
2005,07,14,15,19,784.70
2005,07,14,15,20,773.50
2005,07,14,15,21,775.00
2005,07,14,15,22,787.70
2005,07,14,15,23,764.50
2005,07,14,15,24,753.70
2005,07,14,15,25,713.00
2005,07,14,15,26,703.20
2005,07,14,15,27,677.70
2005,07,14,15,28,661.00
2005,07,14,15,29,686.00
2005,07,14,15,30,669.50
2005,07,14,15,31,716.00
2005,07,14,15,32,676.10
2005,07,14,15,33,710.70
2005,07,14,15,34,719.40
2005,07,14,15,35,725.70
2005,07,14,15,36,715.70
2005,07,14,15,37,699.10
2005,07,14,15,38,640.90
2005,07,14,15,39,602.20
2005,07,14,15,40,562.20
2005,07,14,15,41,552.00
2005,07,14,15,42,758.20
2005,07,14,15,43,768.00
2005,07,14,15,44,768.00
2005,07,14,15,45,704.70
2005,07,14,15,46,645.90
2005,07,14,15,47,643.00
2005,07,14,15,48,643.00
2005,07,14,15,49,654.00
2005,07,14,15,50,687.00
2005,07,14,15,51,687.00
2005,07,14,15,52,641.90
2005,07,14,15,53,683.90
2005,07,14,15,54,712.20
2005,07,14,15,55,742.20
2005,07,14,15,56,732.50
2005,07,14,15,57,760.20
2005,07,14,15,58,789.80
2005,07,14,15,59,770.20
2005,07,14,16,00,743.70
2005,07,14,16,01,735.30
2005,07,14,16,02,777.50
2005,07,14,16,03,789.70
2005,07,14,16,04,764.60
2005,07,14,16,05,773.20
2005,07,14,16,06,768.80
2005,07,14,16,07,761.30
2005,07,14,16,08,787.00
2005,07,14,16,09,792.40
2005,07,14,16,10,790.30
2005,07,14,16,11,773.50
2005,07,14,16,12,778.10
2005,07,14,16,13,800.70
2005,07,14,16,14,800.10
2005,07,14,16,15,800.60
2005,07,14,16,16,802.80
2005,07,14,16,17,792.00
2005,07,14,16,18,721.50
2005,07,14,16,19,707.80
2005,07,14,16,20,722.70
2005,07,14,16,21,724.60
2005,07,14,16,22,722.30
2005,07,14,16,23,713.10
2005,07,14,16,24,667.10
2005,07,14,16,25,634.30
2005,07,14,16,26,601.70
2005,07,14,16,27,606.00
2005,07,14,16,28,529.20
2005,07,14,16,29,484.70
2005,07,14,16,30,553.70
2005,07,14,16,31,591.00
2005,07,14,16,32,564.70
2005,07,14,16,33,597.10
2005,07,14,16,34,637.50
2005,07,14,16,35,616.40
2005,07,14,16,36,662.50
2005,07,14,16,37,668.60
2005,07,14,16,38,670.50
2005,07,14,16,39,640.40
2005,07,14,16,40,629.40
2005,07,14,16,41,638.70
2005,07,14,16,42,643.70
2005,07,14,16,43,652.30
2005,07,14,16,44,643.70
2005,07,14,16,45,660.50
2005,07,14,16,46,589.00
2005,07,14,16,47,566.30
2005,07,14,16,48,578.60
2005,07,14,16,49,579.60
2005,07,14,16,50,616.40
2005,07,14,16,51,661.90
2005,07,14,16,52,661.60
2005,07,14,16,53,666.40
2005,07,14,16,54,671.20
2005,07,14,16,55,664.00
2005,07,14,16,56,664.00
2005,07,14,16,57,661.60
2005,07,14,16,58,643.10
2005,07,14,16,59,645.00
2005,07,14,17,00,636.60
2005,07,14,17,01,620.00
2005,07,14,17,02,619.90
2005,07,14,17,03,625.10
2005,07,14,17,04,622.00
2005,07,14,17,05,618.70
2005,07,14,17,06,615.60